Location: Penton Mewsey
(51.2167°N, 1.5167°W)
Time: 15:34:02
(UTC+00:00)

Abrixas rocket - Pass Details

Date: 30 March 2020
Orbit: 344 x 351 km, 48.4° (Epoch: 02 June)

Event Time Altitude Azimuth Distance (km) Brightness Sun altitude
Rises 20:10:21 0° 220° (SW) 2,164 6.0 -14.8°
Reaches altitude 10° 20:12:42 10° 201° (SSW) 1,328 4.7 -15.1°
Enters shadow 20:13:42 15° 184° (S) 1,061 4.1 -15.3°
